No particular awareness of the weather is required.    There are no Weather-warnings


Meteo18 Weather Cam more information Meteo18 Weather Cam


Thunder radar more information blitzortung!


Rain radar more information rain snow radar


Visit our other weather sites:

Template documentation
and downloads

And another site



Weather Underground History page Text

Daily Summary for January 4, 2017 Units:  Metric    English   Both
« Previous Day
Next Day »
Daily Weekly Monthly Yearly Custom
  High: Low: Average:
Temperature: 2.4 °C -2.5 °C -0.7 °C
Dew Point: 2.0 °C -2.9 °C -1.2 °C
Humidity: 98 % 95 % 97 %
Wind Speed: 19.3 km/h 0.0 km/h 6 km/h
Wind Gust: 25.7 km/h - -
Wind:- - West
Pressure: 1030.4 hPa 1024.9 hPa -
Precipitation: 0.5 mm    
Historical Graphs
 
 
Tabular Data for January 4, 2017
Time Temperature Dew Point Pressure Wind Wind Speed Wind Gust Humidity Rainfall Rate (Hourly)
00:02 -2.4 °C -2.8 °C 1030.4 hPa SW 4.8 km/h 11.3 km/h 97 % 0.0 mm
00:07 -2.3 °C -2.7 °C 1030.4 hPa SSW 6.4 km/h 9.7 km/h 97 % 0.0 mm
00:12 -2.2 °C -2.6 °C 1030.4 hPa WSW 8.0 km/h 12.9 km/h 97 % 0.0 mm
00:17 -2.2 °C -2.6 °C 1030.0 hPa SSW 4.8 km/h 12.9 km/h 97 % 0.0 mm
00:22 -2.2 °C -2.6 °C 1030.0 hPa WSW 3.2 km/h 12.9 km/h 97 % 0.0 mm
00:32 -2.1 °C -2.5 °C 1030.0 hPa Calm   9.7 km/h 97 % 0.0 mm
00:42 -2.1 °C -2.5 °C 1030.0 hPa WSW 1.6 km/h 9.7 km/h 97 % 0.0 mm
00:47 -2.0 °C -2.4 °C 1030.0 hPa SW 6.4 km/h 8.0 km/h 97 % 0.0 mm
00:52 -1.9 °C -2.3 °C 1030.0 hPa SW 3.2 km/h 8.0 km/h 97 % 0.0 mm
00:57 -1.9 °C -2.3 °C 1030.0 hPa West 6.4 km/h 8.0 km/h 97 % 0.0 mm
01:02 -1.9 °C -2.3 °C 1029.7 hPa SW 1.6 km/h 8.0 km/h 97 % 0.0 mm
01:12 -1.9 °C -2.3 °C 1029.7 hPa SW 1.6 km/h 8.0 km/h 97 % 0.0 mm
01:17 -2.0 °C -2.4 °C 1029.3 hPa WSW 4.8 km/h 8.0 km/h 97 % 0.0 mm
01:22 -2.1 °C -2.5 °C 1029.3 hPa SW 6.4 km/h 8.0 km/h 97 % 0.0 mm
01:27 -2.1 °C -2.5 °C 1029.3 hPa Calm   8.0 km/h 97 % 0.0 mm
01:32 -2.1 °C -2.5 °C 1029.3 hPa WSW 3.2 km/h 9.7 km/h 97 % 0.0 mm
01:37 -2.1 °C -2.5 °C 1029.3 hPa West 3.2 km/h 9.7 km/h 97 % 0.0 mm
01:42 -2.1 °C -2.5 °C 1029.3 hPa West 9.7 km/h 9.7 km/h 97 % 0.0 mm
01:47 -2.2 °C -2.6 °C 1029.3 hPa WSW 8.0 km/h 12.9 km/h 97 % 0.0 mm
01:52 -2.2 °C -2.6 °C 1029.3 hPa SW 8.0 km/h 12.9 km/h 97 % 0.0 mm
01:57 -2.2 °C -2.6 °C 1029.3 hPa SW 12.9 km/h 12.9 km/h 97 % 0.0 mm
02:02 -2.2 °C -2.6 °C 1029.3 hPa SW 9.7 km/h 16.1 km/h 97 % 0.0 mm
02:07 -2.2 °C -2.6 °C 1029.3 hPa WSW 3.2 km/h 16.1 km/h 97 % 0.0 mm
02:12 -2.2 °C -2.6 °C 1029.0 hPa WSW 1.6 km/h 14.5 km/h 97 % 0.0 mm
02:17 -2.2 °C -2.6 °C 1029.0 hPa WSW 3.2 km/h 11.3 km/h 97 % 0.0 mm
02:22 -2.2 °C -2.6 °C 1029.3 hPa SW 6.4 km/h 9.7 km/h 97 % 0.0 mm
02:27 -2.2 °C -2.6 °C 1029.0 hPa SW 3.2 km/h 9.7 km/h 97 % 0.0 mm
02:32 -2.2 °C -2.6 °C 1028.7 hPa SW 12.9 km/h 12.9 km/h 97 % 0.0 mm
02:37 -2.2 °C -2.6 °C 1029.0 hPa WSW 8.0 km/h 12.9 km/h 97 % 0.0 mm
02:42 -2.2 °C -2.6 °C 1029.0 hPa WSW 4.8 km/h 12.9 km/h 97 % 0.0 mm
02:47 -2.1 °C -2.5 °C 1029.0 hPa SSW 4.8 km/h 12.9 km/h 97 % 0.0 mm
02:52 -2.1 °C -2.5 °C 1029.0 hPa SW 6.4 km/h 12.9 km/h 97 % 0.0 mm
02:57 -2.1 °C -2.5 °C 1029.3 hPa SW 3.2 km/h 12.9 km/h 97 % 0.0 mm
03:02 -2.1 °C -2.5 °C 1029.3 hPa WSW 1.6 km/h 11.3 km/h 97 % 0.0 mm
03:07 -2.1 °C -2.5 °C 1029.3 hPa SW 3.2 km/h 8.0 km/h 97 % 0.0 mm
03:12 -2.1 °C -2.5 °C 1029.3 hPa WSW 3.2 km/h 8.0 km/h 97 % 0.0 mm
03:17 -2.1 °C -2.5 °C 1029.3 hPa WSW 4.8 km/h 6.4 km/h 97 % 0.0 mm
03:22 -2.2 °C -2.6 °C 1029.3 hPa West 6.4 km/h 6.4 km/h 97 % 0.0 mm
03:27 -2.3 °C -2.7 °C 1029.3 hPa West 4.8 km/h 9.7 km/h 97 % 0.0 mm
03:32 -2.4 °C -2.8 °C 1029.3 hPa West 4.8 km/h 11.3 km/h 97 % 0.0 mm
03:37 -2.4 °C -2.8 °C 1029.3 hPa SW 8.0 km/h 11.3 km/h 97 % 0.0 mm
03:42 -2.4 °C -2.8 °C 1029.3 hPa SSW 6.4 km/h 8.0 km/h 97 % 0.0 mm
03:52 -2.4 °C -2.8 °C 1029.0 hPa SW 4.8 km/h 8.0 km/h 97 % 0.0 mm
03:57 -2.4 °C -2.8 °C 1029.0 hPa SW 4.8 km/h 8.0 km/h 97 % 0.0 mm
04:02 -2.4 °C -2.8 °C 1028.7 hPa Calm   8.0 km/h 97 % 0.0 mm
04:07 -2.4 °C -2.8 °C 1028.7 hPa WSW 4.8 km/h 8.0 km/h 97 % 0.0 mm
04:12 -2.4 °C -2.8 °C 1028.7 hPa WSW 1.6 km/h 8.0 km/h 97 % 0.0 mm
04:17 -2.3 °C -2.7 °C 1028.7 hPa West 1.6 km/h 8.0 km/h 97 % 0.0 mm
04:22 -2.3 °C -2.7 °C 1028.7 hPa WSW 3.2 km/h 8.0 km/h 97 % 0.0 mm
04:27 -2.3 °C -2.7 °C 1028.7 hPa West 3.2 km/h 8.0 km/h 97 % 0.0 mm
04:32 -2.3 °C -2.7 °C 1028.7 hPa SW 4.8 km/h 8.0 km/h 97 % 0.0 mm
04:37 -2.3 °C -2.7 °C 1028.7 hPa WSW 1.6 km/h 11.3 km/h 97 % 0.0 mm
04:42 -2.3 °C -2.7 °C 1028.7 hPa SW 3.2 km/h 11.3 km/h 97 % 0.0 mm
04:47 -2.3 °C -2.7 °C 1028.7 hPa WNW 3.2 km/h 12.9 km/h 97 % 0.0 mm
04:52 -2.3 °C -2.7 °C 1028.7 hPa West 4.8 km/h 12.9 km/h 97 % 0.0 mm
04:57 -2.4 °C -2.8 °C 1028.7 hPa WSW 4.8 km/h 11.3 km/h 97 % 0.0 mm
05:02 -2.4 °C -2.8 °C 1028.7 hPa SSW 3.2 km/h 11.3 km/h 97 % 0.0 mm
05:07 -2.4 °C -2.8 °C 1028.7 hPa SSW 4.8 km/h 12.9 km/h 97 % 0.0 mm
05:12 -2.4 °C -2.8 °C 1028.3 hPa SW 9.7 km/h 12.9 km/h 97 % 0.0 mm
05:17 -2.4 °C -2.8 °C 1028.3 hPa SSW 4.8 km/h 12.9 km/h 97 % 0.0 mm
05:22 -2.4 °C -2.8 °C 1028.3 hPa SSW 4.8 km/h 16.1 km/h 97 % 0.0 mm
05:32 -2.4 °C -2.8 °C 1028.3 hPa SW 6.4 km/h 14.5 km/h 97 % 0.0 mm
05:37 -2.3 °C -2.7 °C 1028.3 hPa SW 3.2 km/h 14.5 km/h 97 % 0.0 mm
05:42 -2.3 °C -2.7 °C 1028.3 hPa SSW 6.4 km/h 14.5 km/h 97 % 0.0 mm
05:47 -2.3 °C -2.7 °C 1028.3 hPa SSW 8.0 km/h 12.9 km/h 97 % 0.0 mm
05:52 -2.3 °C -2.7 °C 1028.3 hPa WSW 3.2 km/h 12.9 km/h 97 % 0.0 mm
05:57 -2.3 °C -2.7 °C 1028.0 hPa WSW 3.2 km/h 12.9 km/h 97 % 0.0 mm
06:02 -2.3 °C -2.7 °C 1028.0 hPa WSW 6.4 km/h 11.3 km/h 97 % 0.0 mm
06:07 -2.3 °C -2.7 °C 1028.0 hPa SSW 3.2 km/h 11.3 km/h 97 % 0.0 mm
06:12 -2.3 °C -2.7 °C 1028.0 hPa SW 4.8 km/h 9.7 km/h 97 % 0.0 mm
06:17 -2.2 °C -2.6 °C 1027.7 hPa SW 9.7 km/h 12.9 km/h 97 % 0.0 mm
06:22 -2.3 °C -2.7 °C 1027.7 hPa SW 4.8 km/h 14.5 km/h 97 % 0.0 mm
06:32 -2.4 °C -2.8 °C 1027.7 hPa SW 3.2 km/h 14.5 km/h 97 % 0.0 mm
06:37 -2.3 °C -2.7 °C 1027.7 hPa SW 1.6 km/h 12.9 km/h 97 % 0.0 mm
06:42 -2.3 °C -2.7 °C 1027.7 hPa WNW 4.8 km/h 11.3 km/h 97 % 0.0 mm
06:47 -2.4 °C -2.8 °C 1027.7 hPa SW 8.0 km/h 11.3 km/h 97 % 0.0 mm
06:57 -2.4 °C -2.8 °C 1027.7 hPa SW 9.7 km/h 12.9 km/h 97 % 0.0 mm
07:02 -2.4 °C -2.8 °C 1027.7 hPa SW 4.8 km/h 12.9 km/h 97 % 0.0 mm
07:07 -2.4 °C -2.8 °C 1027.7 hPa SW 3.2 km/h 14.5 km/h 97 % 0.0 mm
07:12 -2.4 °C -2.8 °C 1027.7 hPa SW 6.4 km/h 14.5 km/h 97 % 0.0 mm
07:17 -2.3 °C -2.7 °C 1027.7 hPa SW 1.6 km/h 12.9 km/h 97 % 0.0 mm
07:22 -2.3 °C -2.7 °C 1027.7 hPa SSW 3.2 km/h 8.0 km/h 97 % 0.0 mm
07:27 -2.3 °C -2.7 °C 1027.7 hPa SSW 6.4 km/h 12.9 km/h 97 % 0.0 mm
07:32 -2.4 °C -2.8 °C 1027.7 hPa WSW 9.7 km/h 14.5 km/h 97 % 0.0 mm
07:37 -2.4 °C -2.8 °C 1027.3 hPa WSW 8.0 km/h 16.1 km/h 97 % 0.0 mm
07:42 -2.4 °C -2.8 °C 1027.3 hPa West 6.4 km/h 16.1 km/h 97 % 0.0 mm
07:47 -2.4 °C -2.8 °C 1027.7 hPa West 4.8 km/h 16.1 km/h 97 % 0.0 mm
07:52 -2.4 °C -2.8 °C 1027.7 hPa SW 8.0 km/h 16.1 km/h 97 % 0.0 mm
07:57 -2.4 °C -2.8 °C 1027.7 hPa SW 4.8 km/h 12.9 km/h 97 % 0.0 mm
08:02 -2.5 °C -2.9 °C 1027.7 hPa SW 9.7 km/h 12.9 km/h 97 % 0.0 mm
08:07 -2.4 °C -2.8 °C 1027.7 hPa SW 6.4 km/h 12.9 km/h 97 % 0.0 mm
08:12 -2.4 °C -2.8 °C 1027.7 hPa WSW 8.0 km/h 12.9 km/h 97 % 0.0 mm
08:17 -2.4 °C -2.8 °C 1027.3 hPa WSW 11.3 km/h 11.3 km/h 97 % 0.0 mm
08:22 -2.3 °C -2.7 °C 1027.3 hPa WSW 11.3 km/h 14.5 km/h 97 % 0.0 mm
08:27 -2.3 °C -2.7 °C 1027.7 hPa WSW 9.7 km/h 14.5 km/h 97 % 0.0 mm
08:32 -2.3 °C -2.7 °C 1027.7 hPa SW 8.0 km/h 14.5 km/h 97 % 0.0 mm
08:37 -2.3 °C -2.7 °C 1027.7 hPa WSW 8.0 km/h 14.5 km/h 97 % 0.0 mm
08:42 -2.3 °C -2.7 °C 1027.7 hPa WSW 6.4 km/h 11.3 km/h 97 % 0.0 mm
08:47 -2.2 °C -2.6 °C 1027.7 hPa SW 11.3 km/h 11.3 km/h 97 % 0.0 mm
08:57 -2.2 °C -2.6 °C 1027.7 hPa SW 6.4 km/h 14.5 km/h 97 % 0.0 mm
09:02 -2.2 °C -2.6 °C 1027.7 hPa WSW 9.7 km/h 14.5 km/h 97 % 0.0 mm
09:07 -2.3 °C -2.7 °C 1027.7 hPa WSW 8.0 km/h 12.9 km/h 97 % 0.0 mm
09:12 -2.3 °C -2.7 °C 1027.7 hPa WSW 6.4 km/h 12.9 km/h 97 % 0.0 mm
09:17 -2.3 °C -2.7 °C 1027.7 hPa SW 6.4 km/h 12.9 km/h 97 % 0.0 mm
09:22 -2.3 °C -2.7 °C 1027.7 hPa WSW 4.8 km/h 12.9 km/h 97 % 0.0 mm
09:32 -2.2 °C -2.6 °C 1027.7 hPa SW 6.4 km/h 12.9 km/h 97 % 0.0 mm
09:37 -2.2 °C -2.6 °C 1027.7 hPa SW 6.4 km/h 12.9 km/h 97 % 0.0 mm
09:42 -2.2 °C -2.6 °C 1027.7 hPa Calm   12.9 km/h 97 % 0.0 mm
09:52 -2.2 °C -2.6 °C 1027.7 hPa WSW 3.2 km/h 12.9 km/h 97 % 0.0 mm
09:57 -2.2 °C -2.6 °C 1027.7 hPa WSW 1.6 km/h 12.9 km/h 97 % 0.0 mm
10:02 -2.2 °C -2.6 °C 1027.7 hPa SW 4.8 km/h 12.9 km/h 97 % 0.0 mm
10:07 -2.2 °C -2.6 °C 1027.7 hPa West 3.2 km/h 11.3 km/h 97 % 0.0 mm
10:12 -2.1 °C -2.5 °C 1027.7 hPa SW 3.2 km/h 8.0 km/h 97 % 0.0 mm
10:17 -2.1 °C -2.5 °C 1027.7 hPa WSW 3.2 km/h 8.0 km/h 97 % 0.0 mm
10:22 -2.1 °C -2.5 °C 1027.7 hPa Calm   8.0 km/h 97 % 0.0 mm
10:27 -2.1 °C -2.5 °C 1027.7 hPa SW 3.2 km/h 8.0 km/h 97 % 0.0 mm
10:32 -2.0 °C -2.4 °C 1027.7 hPa WSW 8.0 km/h 8.0 km/h 97 % 0.0 mm
10:37 -2.0 °C -2.4 °C 1027.7 hPa SW 11.3 km/h 11.3 km/h 97 % 0.0 mm
10:42 -2.0 °C -2.4 °C 1027.7 hPa Calm   14.5 km/h 97 % 0.0 mm
10:47 -1.9 °C -2.3 °C 1027.7 hPa Calm   14.5 km/h 97 % 0.0 mm
10:52 -1.9 °C -2.3 °C 1027.7 hPa WSW 6.4 km/h 14.5 km/h 97 % 0.0 mm
10:57 -1.9 °C -2.3 °C 1027.7 hPa WSW 14.5 km/h 14.5 km/h 97 % 0.0 mm
11:02 -1.8 °C -2.2 °C 1027.7 hPa SW 3.2 km/h 14.5 km/h 97 % 0.0 mm
11:07 -1.8 °C -2.2 °C 1027.7 hPa West 9.7 km/h 14.5 km/h 97 % 0.0 mm
11:12 -1.8 °C -2.2 °C 1027.7 hPa WSW 6.4 km/h 14.5 km/h 97 % 0.0 mm
11:17 -1.7 °C -2.1 °C 1027.7 hPa WSW 8.0 km/h 14.5 km/h 97 % 0.0 mm
11:22 -1.7 °C -2.1 °C 1027.7 hPa West 9.7 km/h 14.5 km/h 97 % 0.0 mm
11:27 -1.7 °C -2.1 °C 1027.7 hPa West 9.7 km/h 14.5 km/h 97 % 0.0 mm
11:32 -1.6 °C -2.0 °C 1027.3 hPa West 9.7 km/h 16.1 km/h 97 % 0.0 mm
11:37 -1.6 °C -2.0 °C 1027.3 hPa WSW 11.3 km/h 17.7 km/h 97 % 0.0 mm
11:42 -1.6 °C -2.0 °C 1027.3 hPa West 11.3 km/h 17.7 km/h 97 % 0.0 mm
11:47 -1.6 °C -2.0 °C 1027.0 hPa West 4.8 km/h 19.3 km/h 97 % 0.0 mm
11:52 -1.6 °C -2.0 °C 1027.0 hPa West 6.4 km/h 19.3 km/h 97 % 0.0 mm
12:02 -1.4 °C -1.8 °C 1027.3 hPa WSW 6.4 km/h 16.1 km/h 97 % 0.0 mm
12:07 -1.4 °C -1.8 °C 1027.3 hPa WNW 1.6 km/h 14.5 km/h 97 % 0.0 mm
12:12 -1.4 °C -1.8 °C 1027.3 hPa WNW 4.8 km/h 12.9 km/h 97 % 0.0 mm
12:17 -1.3 °C -1.7 °C 1027.3 hPa West 3.2 km/h 9.7 km/h 97 % 0.0 mm
12:22 -1.4 °C -1.8 °C 1027.3 hPa West 3.2 km/h 9.7 km/h 97 % 0.0 mm
12:27 -1.3 °C -1.7 °C 1027.3 hPa WSW 1.6 km/h 9.7 km/h 97 % 0.0 mm
12:32 -1.3 °C -1.7 °C 1027.0 hPa WSW 3.2 km/h 9.7 km/h 97 % 0.0 mm
12:37 -1.2 °C -1.6 °C 1027.0 hPa WSW 4.8 km/h 6.4 km/h 97 % 0.0 mm
12:42 -1.2 °C -1.6 °C 1027.0 hPa WSW 6.4 km/h 12.9 km/h 97 % 0.0 mm
12:47 -1.2 °C -1.6 °C 1027.0 hPa West 4.8 km/h 12.9 km/h 97 % 0.0 mm
12:57 -1.1 °C -1.5 °C 1026.6 hPa West 8.0 km/h 16.1 km/h 97 % 0.0 mm
13:02 -1.1 °C -1.5 °C 1026.6 hPa West 3.2 km/h 16.1 km/h 97 % 0.0 mm
13:07 -1.0 °C -1.4 °C 1026.6 hPa WSW 8.0 km/h 16.1 km/h 97 % 0.0 mm
13:12 -0.9 °C -1.2 °C 1026.6 hPa WSW 11.3 km/h 14.5 km/h 98 % 0.0 mm
13:17 -0.9 °C -1.3 °C 1026.6 hPa WNW 14.5 km/h 14.5 km/h 97 % 0.0 mm
13:22 -0.9 °C -1.3 °C 1026.6 hPa West 11.3 km/h 16.1 km/h 97 % 0.0 mm
13:27 -0.9 °C -1.3 °C 1026.6 hPa West 12.9 km/h 17.7 km/h 97 % 0.0 mm
13:37 -0.8 °C -1.2 °C 1026.3 hPa West 9.7 km/h 17.7 km/h 97 % 0.0 mm
13:42 -0.8 °C -1.2 °C 1026.0 hPa WSW 19.3 km/h 19.3 km/h 97 % 0.0 mm
13:47 -0.7 °C -1.1 °C 1026.0 hPa West 11.3 km/h 25.7 km/h 97 % 0.0 mm
13:57 -0.6 °C -1.0 °C 1025.6 hPa West 6.4 km/h 25.7 km/h 97 % 0.0 mm
14:02 -0.5 °C -0.9 °C 1025.6 hPa West 17.7 km/h 22.5 km/h 97 % 0.0 mm
14:07 -0.4 °C -0.8 °C 1025.6 hPa WNW 12.9 km/h 24.1 km/h 97 % 0.0 mm
14:12 -0.4 °C -0.8 °C 1025.6 hPa West 9.7 km/h 24.1 km/h 97 % 0.0 mm
14:17 -0.3 °C -0.7 °C 1025.6 hPa West 9.7 km/h 24.1 km/h 97 % 0.0 mm
14:27 -0.2 °C -0.6 °C 1024.9 hPa WSW 11.3 km/h 22.5 km/h 97 % 0.0 mm
14:32 -0.1 °C -0.5 °C 1024.9 hPa West 9.7 km/h 22.5 km/h 97 % 0.0 mm
14:42 -0.1 °C -0.7 °C 1024.9 hPa West 12.9 km/h 19.3 km/h 96 % 0.0 mm
14:47 0.0 °C -0.6 °C 1024.9 hPa WSW 9.7 km/h 24.1 km/h 96 % 0.0 mm
14:52 0.1 °C -0.5 °C 1024.9 hPa WNW 8.0 km/h 24.1 km/h 96 % 0.0 mm
14:57 0.2 °C -0.4 °C 1024.9 hPa West 6.4 km/h 24.1 km/h 96 % 0.0 mm
15:02 0.2 °C -0.5 °C 1024.9 hPa WNW 17.7 km/h 24.1 km/h 95 % 0.0 mm
15:12 0.2 °C -0.5 °C 1024.9 hPa WNW 8.0 km/h 24.1 km/h 95 % 0.0 mm
15:17 0.3 °C -0.4 °C 1025.3 hPa WNW 1.6 km/h 24.1 km/h 95 % 0.0 mm
15:22 0.4 °C -0.3 °C 1025.3 hPa SW 3.2 km/h 24.1 km/h 95 % 0.0 mm
15:27 0.4 °C -0.3 °C 1025.3 hPa West 1.6 km/h 16.1 km/h 95 % 0.0 mm
15:32 0.4 °C -0.3 °C 1025.3 hPa WNW 1.6 km/h 9.7 km/h 95 % 0.0 mm
15:37 0.5 °C -0.2 °C 1025.3 hPa WSW 1.6 km/h 9.7 km/h 95 % 0.0 mm
15:42 0.6 °C -0.1 °C 1025.3 hPa West 1.6 km/h 12.9 km/h 95 % 0.0 mm
15:47 0.6 °C -0.1 °C 1025.3 hPa West 6.4 km/h 12.9 km/h 95 % 0.0 mm
15:52 0.7 °C 0.0 °C 1025.3 hPa Calm   11.3 km/h 95 % 0.0 mm
15:57 0.7 °C 0.0 °C 1025.6 hPa WSW 4.8 km/h 9.7 km/h 95 % 0.0 mm
16:07 0.7 °C 0.0 °C 1025.6 hPa SW 1.6 km/h 9.7 km/h 95 % 0.0 mm
16:17 0.7 °C 0.0 °C 1025.3 hPa SSW 4.8 km/h 4.8 km/h 95 % 0.0 mm
16:22 0.8 °C 0.2 °C 1025.3 hPa SW 1.6 km/h 6.4 km/h 96 % 0.0 mm
16:27 0.8 °C 0.2 °C 1025.3 hPa SW 6.4 km/h 6.4 km/h 96 % 0.0 mm
16:32 0.9 °C 0.3 °C 1025.3 hPa SW 4.8 km/h 8.0 km/h 96 % 0.0 mm
16:37 0.9 °C 0.3 °C 1025.3 hPa WNW 1.6 km/h 8.0 km/h 96 % 0.0 mm
16:47 1.0 °C 0.4 °C 1025.3 hPa West 1.6 km/h 9.7 km/h 96 % 0.0 mm
16:52 1.1 °C 0.5 °C 1025.3 hPa West 3.2 km/h 9.7 km/h 96 % 0.0 mm
17:02 1.1 °C 0.4 °C 1025.3 hPa WSW 4.8 km/h 8.0 km/h 95 % 0.0 mm
17:07 1.2 °C 0.5 °C 1025.3 hPa WNW 4.8 km/h 11.3 km/h 95 % 0.0 mm
17:17 1.3 °C 0.6 °C 1024.9 hPa West 3.2 km/h 11.3 km/h 95 % 0.0 mm
17:27 1.4 °C 0.7 °C 1025.3 hPa West 3.2 km/h 12.9 km/h 95 % 0.0 mm
17:32 1.4 °C 0.7 °C 1025.3 hPa WNW 3.2 km/h 12.9 km/h 95 % 0.0 mm
17:37 1.4 °C 0.7 °C 1025.3 hPa West 3.2 km/h 12.9 km/h 95 % 0.0 mm
17:42 1.5 °C 0.8 °C 1025.3 hPa WNW 3.2 km/h 16.1 km/h 95 % 0.0 mm
17:47 1.5 °C 0.8 °C 1025.3 hPa NW 3.2 km/h 16.1 km/h 95 % 0.0 mm
17:52 1.5 °C 0.8 °C 1025.3 hPa West 8.0 km/h 16.1 km/h 95 % 0.0 mm
17:57 1.5 °C 0.8 °C 1025.3 hPa WNW 14.5 km/h 14.5 km/h 95 % 0.0 mm
18:07 1.5 °C 0.8 °C 1025.3 hPa West 3.2 km/h 14.5 km/h 95 % 0.0 mm
18:12 1.5 °C 0.8 °C 1025.3 hPa NW 9.7 km/h 14.5 km/h 95 % 0.3 mm
18:17 1.5 °C 0.8 °C 1025.3 hPa WNW 16.1 km/h 20.9 km/h 95 % 0.3 mm
18:22 1.5 °C 0.8 °C 1025.3 hPa WSW 4.8 km/h 20.9 km/h 95 % 0.3 mm
18:32 1.4 °C 0.7 °C 1025.6 hPa WNW 12.9 km/h 17.7 km/h 95 % 0.3 mm
18:37 1.4 °C 0.7 °C 1025.6 hPa West 9.7 km/h 20.9 km/h 95 % 0.3 mm
18:47 1.4 °C 0.7 °C 1025.6 hPa West 12.9 km/h 20.9 km/h 95 % 0.3 mm
18:52 1.4 °C 0.8 °C 1025.6 hPa WNW 14.5 km/h 20.9 km/h 96 % 0.3 mm
18:57 1.4 °C 0.7 °C 1025.6 hPa West 8.0 km/h 20.9 km/h 95 % 0.3 mm
19:07 1.4 °C 0.8 °C 1025.6 hPa NW 6.4 km/h 20.9 km/h 96 % 0.0 mm
19:12 1.4 °C 0.8 °C 1025.6 hPa NW 12.9 km/h 24.1 km/h 96 % 0.0 mm
19:22 1.4 °C 0.8 °C 1025.6 hPa WNW 8.0 km/h 24.1 km/h 96 % 0.0 mm
19:32 1.4 °C 0.8 °C 1025.6 hPa WNW 4.8 km/h 19.3 km/h 96 % 0.0 mm
19:37 1.4 °C 0.8 °C 1025.6 hPa West 6.4 km/h 17.7 km/h 96 % 0.0 mm
19:42 1.5 °C 0.9 °C 1025.6 hPa West 12.9 km/h 17.7 km/h 96 % 0.0 mm
19:47 1.5 °C 0.9 °C 1025.6 hPa NW 3.2 km/h 16.1 km/h 96 % 0.0 mm
19:52 1.6 °C 1.0 °C 1025.6 hPa West 6.4 km/h 16.1 km/h 96 % 0.3 mm
19:57 1.6 °C 1.0 °C 1026.0 hPa WSW 3.2 km/h 16.1 km/h 96 % 0.3 mm
20:02 1.6 °C 1.0 °C 1026.0 hPa WNW 12.9 km/h 16.1 km/h 96 % 0.3 mm
20:07 1.6 °C 1.0 °C 1026.0 hPa WNW 11.3 km/h 16.1 km/h 96 % 0.3 mm
20:12 1.7 °C 1.1 °C 1026.0 hPa NW 8.0 km/h 16.1 km/h 96 % 0.3 mm
20:17 1.7 °C 1.1 °C 1026.0 hPa NW 9.7 km/h 17.7 km/h 96 % 0.3 mm
20:22 1.6 °C 1.0 °C 1026.0 hPa WNW 9.7 km/h 17.7 km/h 96 % 0.3 mm
20:32 1.7 °C 1.1 °C 1026.0 hPa WNW 4.8 km/h 16.1 km/h 96 % 0.3 mm
20:37 1.7 °C 1.1 °C 1026.0 hPa WNW 11.3 km/h 14.5 km/h 96 % 0.3 mm
20:42 1.7 °C 1.1 °C 1026.0 hPa WNW 1.6 km/h 17.7 km/h 96 % 0.3 mm
20:47 1.7 °C 1.1 °C 1026.3 hPa WNW 14.5 km/h 17.7 km/h 96 % 0.0 mm
20:57 1.8 °C 1.2 °C 1026.3 hPa WNW 11.3 km/h 16.1 km/h 96 % 0.0 mm
21:02 1.8 °C 1.2 °C 1026.3 hPa West 8.0 km/h 16.1 km/h 96 % 0.0 mm
21:07 1.8 °C 1.2 °C 1026.0 hPa West 4.8 km/h 16.1 km/h 96 % 0.0 mm
21:12 1.9 °C 1.3 °C 1026.3 hPa WNW 8.0 km/h 14.5 km/h 96 % 0.0 mm
21:22 1.9 °C 1.3 °C 1026.6 hPa NW 4.8 km/h 14.5 km/h 96 % 0.0 mm
21:27 2.0 °C 1.4 °C 1026.6 hPa WNW 4.8 km/h 14.5 km/h 96 % 0.0 mm
21:32 2.0 °C 1.4 °C 1026.6 hPa NW 3.2 km/h 12.9 km/h 96 % 0.0 mm
21:37 2.0 °C 1.4 °C 1026.6 hPa NW 8.0 km/h 14.5 km/h 96 % 0.0 mm
21:42 2.1 °C 1.7 °C 1026.6 hPa WNW 3.2 km/h 14.5 km/h 97 % 0.3 mm
21:52 2.2 °C 1.8 °C 1026.6 hPa WNW 6.4 km/h 12.9 km/h 97 % 0.3 mm
21:57 2.2 °C 1.8 °C 1027.0 hPa West 4.8 km/h 12.9 km/h 97 % 0.3 mm
22:02 2.2 °C 1.8 °C 1026.6 hPa WNW 4.8 km/h 12.9 km/h 97 % 0.3 mm
22:07 2.2 °C 1.8 °C 1026.6 hPa WNW 1.6 km/h 11.3 km/h 97 % 0.3 mm
22:12 2.3 °C 1.9 °C 1026.6 hPa WNW 8.0 km/h 11.3 km/h 97 % 0.3 mm
22:17 2.3 °C 1.9 °C 1026.6 hPa WNW 8.0 km/h 14.5 km/h 97 % 0.3 mm
22:22 2.4 °C 2.0 °C 1027.0 hPa WNW 8.0 km/h 14.5 km/h 97 % 0.3 mm
22:27 2.3 °C 1.9 °C 1027.0 hPa West 3.2 km/h 14.5 km/h 97 % 0.3 mm
22:32 2.3 °C 1.9 °C 1027.0 hPa North 1.6 km/h 12.9 km/h 97 % 0.3 mm
22:37 2.3 °C 1.9 °C 1027.0 hPa WNW 3.2 km/h 12.9 km/h 97 % 0.3 mm
22:42 2.3 °C 1.9 °C 1027.0 hPa WNW 1.6 km/h 8.0 km/h 97 % 0.0 mm
22:52 2.2 °C 1.6 °C 1027.0 hPa WNW 3.2 km/h 8.0 km/h 96 % 0.0 mm
22:57 2.2 °C 1.8 °C 1027.0 hPa NW 1.6 km/h 9.7 km/h 97 % 0.0 mm
23:02 2.2 °C 1.6 °C 1027.0 hPa North 3.2 km/h 9.7 km/h 96 % 0.0 mm
23:07 2.2 °C 1.6 °C 1027.0 hPa WNW 6.4 km/h 9.7 km/h 96 % 0.0 mm
23:12 2.2 °C 1.6 °C 1027.0 hPa West 4.8 km/h 11.3 km/h 96 % 0.0 mm
23:17 2.2 °C 1.6 °C 1027.0 hPa Calm   11.3 km/h 96 % 0.0 mm
23:22 2.2 °C 1.6 °C 1027.3 hPa NW 4.8 km/h 11.3 km/h 96 % 0.0 mm
23:27 2.2 °C 1.6 °C 1027.3 hPa NW 4.8 km/h 11.3 km/h 96 % 0.0 mm
23:32 2.2 °C 1.6 °C 1027.3 hPa NNW 4.8 km/h 8.0 km/h 96 % 0.0 mm
23:37 2.2 °C 1.6 °C 1027.3 hPa NW 3.2 km/h 8.0 km/h 96 % 0.0 mm
23:42 2.2 °C 1.6 °C 1027.3 hPa NW 1.6 km/h 8.0 km/h 96 % 0.0 mm
Meteo18
Compliments of Weather Underground - 4 mb

Script developed by  Jim McMurry - jmcmurry@mwt.net Adapted for the template by  Wim van der Kuil - Leuven-Template.eu

You find our weather info also at:

European Weather Network

Weather Underground

Equipment we use:

Weather-station
Davis Vue

Weather-program
Meteohub

Weather-server
Raspberry PI 2 B+

Provider
1 and 1

Davis Vue

Meteohub

Raspberry PI 2 B+

1 and 1